Regional Weather Roundup
Issued by NWS

Home | Current Version | Previous Version | Text Only | Print | Product List | Glossary Off
Versions: 1 2 3 4 5 6 7 8 9 10 11 12 13 14 15 16 17 18 19 20 21 22 23 24 25 26 27 28 29 30 31 32 33 34 35 36 37 38 39 40 41 42 43 44 45 46 47 48 49 50

000
ASUS43 KLMK 191102
RWRKY
KENTUCKY REGIONAL WEATHER ROUNDUP
NATIONAL WEATHER SERVICE LOUISVILLE KY
700 AM EDT SUN APR 19 2015

NOTE "FAIR" INDICATES FEW OR NO CLOUDS BELOW 12,000 FEET
WITH NO SIGNIFICANT WEATHER AND/OR OBSTRUCTIONS TO VISIBILITY.

KYZ001>023-026-027-061>063-070>075-191200-
WESTERN AND SOUTH CENTRAL KENTUCKY

CITY           SKY/WX    TMP DP  RH WIND       PRES   REMARKS
PADUCAH        LGT RAIN  64  62  93 E5        29.68F
HENDERSON      CLOUDY    59  55  88 NE5       29.71S
OWENSBORO      RAIN      62  59  90 SE8       29.73F FOG
HOPKINSVILLE   LGT RAIN  65  64  97 SE6       29.70F
BOWLING GREEN  LGT RAIN  65  61  87 E6        29.74F
GLASGOW        NOT AVBL
$$

KYZ024-025-028>034-038-045-046-053-191200-
NORTH CENTRAL KENTUCKY

CITY           SKY/WX    TMP DP  RH WIND       PRES   REMARKS
LOUISVILLE/SDF LGT RAIN  62  54  74 SE6       29.79S
LOUISVILLE/LOU RAIN      62  53  72 E5        29.80S
FORT KNOX      LGT RAIN  60  58  92 NE8       29.75F
$$

KYZ035>037-039>044-047>052-055>060-089>105-191200-
NORTHEAST KENTUCKY

CITY           SKY/WX    TMP DP  RH WIND       PRES   REMARKS
LEXINGTON      LGT RAIN  63  49  60 E8        29.83S
COVINGTON      CLOUDY    63  45  51 E9        29.83F
FRANKFORT      LGT RAIN  61  49  64 CALM      29.81F
$$

KYZ054-064>069-076>088-106>120-191200-
SOUTHEAST KENTUCKY

CITY           SKY/WX    TMP DP  RH WIND       PRES   REMARKS
JACKSON        LGT RAIN  64  51  62 VRB5      29.86F
LONDON         CLOUDY    65  55  70 CALM      29.83F
SOMERSET       NOT AVBL
MIDDLESBORO    NOT AVBL
MONTICELLO     CLOUDY    65  63  93 W5        29.84S
$$




USA.gov is the U.S. government's official web portal to all federal, state and local government web resources and services.